| time (UTC) | temp C | wind direction | speed KPH | gust KPH | rain 1hr cm | rain 24hr cm | rain mn cm | humidity % | barometer mb |
| 20260505183014 | 27 | 240 | 6.4 | 14.5 | 0.00 | 0.00 | 0.00 | 52 | 1009.0 |
| 20260505181602 | 26 | 207 | 6.4 | 17.7 | 0.00 | 0.00 | 0.00 | 52 | 1009.1 |
| 20260505180115 | 26 | 194 | 6.4 | 14.5 | 0.00 | 0.00 | 0.00 | 52 | 1009.6 |
| 20260505174513 | 26 | 223 | 8.0 | 12.9 | 0.00 | 0.00 | 0.00 | 55 | 1009.7 |
| 20260505173058 | 26 | 279 | 4.8 | 11.3 | 0.00 | 0.00 | 0.00 | 55 | 1009.7 |
| 20260505171522 | 26 | 257 | 3.2 | 14.5 | 0.00 | 0.00 | 0.00 | 56 | 1009.8 |
| 20260505170026 | 26 | 192 | 4.8 | 14.5 | 0.00 | 0.00 | 0.00 | 56 | 1010.1 |
| 20260505164611 | 25 | 165 | 6.4 | 12.9 | 0.00 | 0.00 | 0.00 | 55 | 1010.3 |
| 20260505163024 | 25 | 189 | 6.4 | 12.9 | 0.00 | 0.00 | 0.00 | 58 | 1010.7 |
| 20260505161506 | 25 | 211 | 0.0 | 12.9 | 0.00 | 0.00 | 0.00 | 58 | 1010.7 |
| 20260505153110 | 23 | 277 | 4.8 | 11.3 | 0.00 | 0.00 | 0.00 | 58 | 1011.0 |
| 20260505151501 | 23 | 275 | 1.6 | 9.7 | 0.00 | 0.00 | 0.00 | 57 | 1011.1 |
| 20260505124601 | 16 | 262 | 0.0 | 0.0 | 0.00 | 0.00 | 0.00 | 30 | 1012.2 |
| 20260505121512 | 13 | 259 | 0.0 | 0.0 | 0.00 | 0.00 | 0.00 | 18 | 1012.0 |
| 20260505120032 | 13 | 259 | 0.0 | 0.0 | 0.00 | 0.00 | 0.00 | 18 | 1011.9 |
| 20260505114503 | 13 | 329 | 0.0 | 0.0 | 0.00 | 0.00 | 0.00 | 18 | 1011.9 |
| 20260505113025 | 13 | 329 | 0.0 | 0.0 | 0.00 | 0.00 | 0.00 | 18 | 1011.8 |
| 20260505111503 | 13 | 329 | 0.0 | 0.0 | 0.00 | 0.00 | 0.00 | 18 | 1011.7 |
| 20260505110107 | 13 | 329 | 0.0 | 0.0 | 0.00 | 0.00 | 0.00 | 18 | 1011.7 |
| 20260505101532 | 12 | 329 | 0.0 | 0.0 | 0.00 | 0.00 | 0.00 | 18 | 1011.4 |
| 20260505100055 | 12 | 329 | 0.0 | 0.0 | 0.00 | 0.00 | 0.00 | 18 | 1011.3 |
| 20260505094559 | 12 | 329 | 0.0 | 0.0 | 0.00 | 0.00 | 0.00 | 18 | 1011.3 |
| 20260505093104 | 12 | 329 | 0.0 | 0.0 | 0.00 | 0.00 | 0.00 | 18 | 1011.4 |
| 20260505091615 | 12 | 332 | 0.0 | 6.4 | 0.00 | 0.00 | 0.00 | 18 | 1011.0 |
| 20260505090020 | 12 | 244 | 0.0 | 0.0 | 0.00 | 0.00 | 0.00 | 18 | 1011.5 |
| 20260505084506 | 14 | 244 | 0.0 | 0.0 | 0.00 | 0.00 | 0.00 | 59 | 1011.1 |
| 20260505083024 | 15 | 244 | 0.0 | 0.0 | 0.00 | 0.00 | 0.00 | 60 | 1011.3 |
| 20260505081602 | 15 | 244 | 0.0 | 1.6 | 0.00 | 0.00 | 0.00 | 62 | 1010.7 |
| 20260505080125 | 15 | 244 | 0.0 | 3.2 | 0.00 | 0.00 | 0.00 | 63 | 1010.7 |
| 20260505074510 | 15 | 244 | 0.0 | 3.2 | 0.00 | 0.00 | 0.00 | 64 | 1010.7 |
| 20260505073013 | 15 | 244 | 0.0 | 1.6 | 0.00 | 0.00 | 0.00 | 67 | 1010.8 |
| 20260505071607 | 15 | 244 | 0.0 | 3.2 | 0.00 | 0.00 | 0.00 | 69 | 1010.8 |
| 20260505070114 | 15 | 244 | 0.0 | 0.0 | 0.00 | 0.00 | 0.00 | 71 | 1010.9 |
| 20260505064601 | 15 | 244 | 0.0 | 1.6 | 0.00 | 0.00 | 0.00 | 72 | 1010.8 |
| 20260505063140 | 15 | 244 | 0.0 | 1.6 | 0.00 | 0.00 | 0.00 | 72 | 1010.9 |
| 20260505061513 | 15 | 244 | 0.0 | 3.2 | 0.00 | 0.00 | 0.00 | 72 | 1011.0 |
| 20260505060026 | 15 | 244 | 0.0 | 6.4 | 0.00 | 0.00 | 0.00 | 72 | 1011.0 |
| 20260505054527 | 15 | 242 | 1.6 | 6.4 | 0.00 | 0.00 | 0.00 | 72 | 1010.8 |
| 20260505053111 | 15 | 227 | 1.6 | 6.4 | 0.00 | 0.00 | 0.00 | 71 | 1010.8 |
| 20260505051529 | 15 | 225 | 1.6 | 6.4 | 0.00 | 0.00 | 0.00 | 71 | 1010.8 |
| 20260505041506 | 15 | 206 | 3.2 | 8.0 | 0.00 | 0.00 | 0.00 | 71 | 1011.0 |
| 20260505040002 | 15 | 208 | 1.6 | 4.8 | 0.00 | 0.00 | 0.00 | 71 | 1010.7 |
| 20260505034524 | 15 | 207 | 1.6 | 6.4 | 0.00 | 0.00 | 0.00 | 71 | 1010.6 |
| 20260505033106 | 15 | 207 | 1.6 | 8.0 | 0.00 | 0.00 | 0.00 | 70 | 1010.6 |
| 20260505031510 | 15 | 207 | 3.2 | 8.0 | 0.00 | 0.00 | 0.00 | 69 | 1010.8 |
| 20260505030010 | 16 | 207 | 1.6 | 4.8 | 0.00 | 0.00 | 0.00 | 69 | 1010.9 |
| 20260505024512 | 16 | 206 | 1.6 | 6.4 | 0.00 | 0.00 | 0.00 | 68 | 1010.8 |
| 20260505023026 | 16 | 205 | 1.6 | 4.8 | 0.00 | 0.00 | 0.00 | 68 | 1011.1 |
| 20260505021525 | 16 | 205 | 1.6 | 6.4 | 0.00 | 0.00 | 0.00 | 67 | 1011.1 |
| 20260505020029 | 16 | 205 | 1.6 | 3.2 | 0.00 | 0.00 | 0.00 | 67 | 1011.3 |
| 20260505014557 | 17 | 205 | 1.6 | 6.4 | 0.00 | 0.00 | 0.00 | 66 | 1011.1 |
| 20260505013024 | 17 | 205 | 1.6 | 8.0 | 0.00 | 0.00 | 0.00 | 65 | 1011.1 |
| 20260505011555 | 17 | 205 | 1.6 | 6.4 | 0.00 | 0.00 | 0.00 | 64 | 1010.9 |
| 20260505010110 | 17 | 205 | 1.6 | 3.2 | 0.00 | 0.00 | 0.00 | 64 | 1010.8 |
| 20260505004608 | 17 | 205 | 0.0 | 3.2 | 0.00 | 0.00 | 0.00 | 64 | 1010.7 |
| 20260505003026 | 17 | 205 | 1.6 | 6.4 | 0.00 | 0.00 | 0.00 | 63 | 1010.6 |
| 20260505001609 | 18 | 205 | 0.0 | 3.2 | 0.00 | 0.00 | 0.00 | 62 | 1010.6 |
| 20260505000012 | 18 | 294 | 0.0 | 6.4 | 0.00 | 0.00 | 0.00 | 61 | 1010.4 |
| 20260504234522 | 19 | 220 | 1.6 | 8.0 | 0.00 | 0.00 | 0.00 | 59 | 1010.5 |
| 20260504233006 | 19 | 194 | 1.6 | 14.5 | 0.00 | 0.00 | 0.00 | 59 | 1010.2 |
| 20260504231524 | 19 | 212 | 1.6 | 8.0 | 0.00 | 0.00 | 0.00 | 59 | 1010.2 |
| 20260504230059 | 20 | 232 | 1.6 | 9.7 | 0.00 | 0.00 | 0.00 | 59 | 1010.0 |
| 20260504224507 | 20 | 219 | 3.2 | 9.7 | 0.00 | 0.00 | 0.00 | 59 | 1010.0 |
| 20260504223142 | 20 | 239 | 1.6 | 9.7 | 0.00 | 0.00 | 0.00 | 59 | 1010.0 |
| 20260504221603 | 20 | 202 | 4.8 | 11.3 | 0.00 | 0.00 | 0.00 | 58 | 1010.2 |
| 20260504220002 | 21 | 212 | 3.2 | 9.7 | 0.00 | 0.00 | 0.00 | 57 | 1010.1 |
| 20260504214509 | 21 | 223 | 1.6 | 8.0 | 0.00 | 0.00 | 0.00 | 54 | 1010.1 |
| 20260504213057 | 21 | 252 | 3.2 | 9.7 | 0.00 | 0.00 | 0.00 | 54 | 1010.2 |
| 20260504211508 | 21 | 190 | 3.2 | 9.7 | 0.00 | 0.00 | 0.00 | 54 | 1010.3 |
| 20260504210008 | 21 | 267 | 3.2 | 11.3 | 0.00 | 0.00 | 0.00 | 54 | 1010.3 |
| 20260504204525 | 21 | 247 | 4.8 | 11.3 | 0.00 | 0.00 | 0.00 | 53 | 1010.5 |
| 20260504203004 | 21 | 247 | 3.2 | 9.7 | 0.00 | 0.00 | 0.00 | 53 | 1010.7 |
| 20260504201515 | 21 | 217 | 1.6 | 12.9 | 0.00 | 0.00 | 0.00 | 54 | 1010.8 |
| 20260504200025 | 21 | 213 | 4.8 | 11.3 | 0.00 | 0.00 | 0.00 | 54 | 1010.7 |
| 20260504194613 | 21 | 225 | 1.6 | 9.7 | 0.00 | 0.00 | 0.00 | 53 | 1010.9 |
| 20260504193102 | 21 | 252 | 3.2 | 12.9 | 0.00 | 0.00 | 0.00 | 54 | 1011.0 |
| 20260504191609 | 21 | 234 | 4.8 | 11.3 | 0.00 | 0.00 | 0.00 | 55 | 1011.0 |
| 20260504190130 | 20 | 165 | 1.6 | 11.3 | 0.00 | 0.00 | 0.00 | 55 | 1011.2 |
| 20260504184604 | 20 | 203 | 4.8 | 14.5 | 0.00 | 0.00 | 0.00 | 54 | 1011.6 |